Theta_e
342 341 342 342 341 341 339 342 347 350 354 354 354 353 353 350 349 350 349 349 346 342
343 342 342 342 343 342 342 344 346 349 352 354 353 354 353 351 350 351 350 348 348 345
344 344 344 342 341 342 342 344 347 349 350 353 354 354 353 352 352 351 350 349 348 347
344 345 345 343 342 342 343 342 344 348 350 351 353 354 353 353 353 351 351 351 350 350
345 346 344 344 344 344 342 342 344 346 349 350 352 354 353 352 353 352 351 351 351 351
344 344 344 345 344 344 344 344 345 344 345 347 350 352 354 354 353 352 353 353 352 352
344 344 345 346 348 346 345 344 344 346 348 349 350 351 352 354 353 352 352 353 353 353
344 345 345 344 345 349 349 346 346 344 345 347 349 351 352 353 354 353 352 353 353 354
344 345 345 345 345 344 345 349 349 347 347 345 346 339 337 347 352 354 354 353 353 354
343 344 345 347 347 346 344 345 346 348 348 347 347 333 333 338 352 352 352 353 354 353
343 343 345 346 348 349 349 347 345 346 348 348 348 331 330 334 349 352 352 353 353 352
345 345 345 345 347 350 352 351 350 349 347 347 348 329 328 331 346 348 351 353 354 354
347 347 347 348 347 349 351 352 354 353 353 344 350 331 324 330 349 348 349 352 354 335
347 347 348 349 351 351 351 352 352 353 355 355 350 350 323 321 347 350 350 350 352 355
Wind_Speed
12 8 8 9 6 6 5 5 6 7 6 7 6 5 5 3 4 5 4 5 4 2
12 12 11 10 8 7 6 5 6 6 7 8 8 8 6 5 6 5 5 5 5 4
15 14 12 9 10 8 7 7 6 7 7 7 8 8 7 6 6 6 5 5 5 4
14 14 12 11 11 10 8 9 9 7 7 8 8 8 8 9 7 8 7 6 6 7
15 14 14 13 12 11 11 8 9 8 9 8 8 8 10 10 8 10 9 10 8 9
15 15 16 15 12 12 11 11 10 10 11 10 10 9 9 10 10 10 11 11 11 11
17 16 15 14 13 13 12 12 11 11 12 12 10 10 10 10 10 10 11 11 11 11
15 15 13 13 14 13 13 14 13 12 13 12 11 10 12 11 11 10 11 11 11 11
15 15 15 15 14 13 13 14 13 14 13 13 11 15 17 14 12 11 12 11 11 12
15 15 16 14 13 14 14 12 14 14 13 14 14 15 16 18 13 11 12 13 12 10
15 15 13 13 14 13 12 14 13 13 14 14 13 14 18 16 14 14 14 14 14 14
15 15 14 15 14 13 13 13 14 14 14 15 15 16 17 13 13 14 16 14 14 14
14 15 15 16 15 12 12 13 11 13 14 16 16 14 17 15 10 12 10 12 14 14
14 16 15 13 12 12 12 11 11 12 12 14 14 14 16 19 13 11 10 11 10 10
Wind_Direction
193 191 198 194 198 194 192 194 193 204 202 212 212 212 207 193 206 204 223 232 218 210
194 192 197 195 196 199 183 198 197 197 203 213 213 213 201 214 223 202 213 221 220 225
194 197 195 187 198 199 196 191 184 195 203 210 216 215 201 219 224 212 223 221 212 224
197 196 196 196 198 200 196 196 198 197 204 216 213 208 206 219 221 219 230 222 213 230
193 191 195 198 196 193 197 193 201 195 211 218 216 206 207 219 215 221 228 232 222 230
192 191 199 198 191 192 193 198 197 197 216 221 221 212 210 216 218 220 226 227 226 231
195 195 199 198 194 192 193 199 198 201 213 216 212 215 216 215 218 221 228 228 223 225
195 194 192 191 193 195 193 202 205 203 215 217 217 218 218 216 219 218 228 230 230 228
192 192 194 196 195 194 198 205 204 213 214 217 221 219 214 214 221 221 224 228 230 233
189 193 199 195 191 196 201 198 209 216 215 223 226 220 214 210 224 223 227 230 232 230
188 193 192 192 197 198 197 202 204 213 217 223 229 213 214 209 222 230 233 230 233 235
185 186 187 196 198 199 198 205 211 212 214 219 229 215 213 196 220 230 236 238 236 231
183 187 192 197 198 198 203 211 211 219 218 217 227 214 210 201 222 232 236 239 240 226
186 193 194 192 195 194 200 209 211 215 219 221 218 226 205 200 214 224 228 232 237 235